Preview of NWS' New Version of Forecast
This preview is not operational and should not be used for support decisions.

Regional Weather Roundup (RWR)

Issued by National Weather Service (NWS)

                            
000
ASUS43 KMKX 201021
RWRWI 

WISCONSIN REGIONAL WEATHER ROUNDUP
NATIONAL WEATHER SERVICE MILWAUKEE/SULLIVAN WI
500 AM CDT TUE AUG 20 2019

NOTE: "FAIR" INDICATES FEW OR NO CLOUDS BELOW 12,000 FEET WITH NO
SIGNIFICANT WEATHER AND/OR OBSTRUCTIONS TO VISIBILITY.

WIZ001-002-006>008-014>016-023>028-201100-
NORTHWEST WISCONSIN
  
CITY           SKY/WX    TMP DP  RH WIND       PRES   REMARKS
SUPERIOR ARPT  FAIR      57  56  98 CALM      29.87F                  
ASHLAND        FAIR      58  56  93 S3        29.93F                  
HAYWARD        FAIR      51  49  92 CALM      29.96F                  
SIREN          FAIR      60  58  94 SE5       29.90F                  
CUMBERLAND     FAIR      55  54  94 SE7       29.93F                  
RICE LAKE      FAIR      55  38  54 CALM      29.96F                  
CHETEK         FAIR      59  58  98 CALM      29.96F                  
LADYSMITH      FAIR      55  55  98 CALM      29.98F                  
EAU CLAIRE     FAIR      56  55  97 CALM      29.95F                  
MENOMONIE      FAIR      52  52  99 CALM      29.96R                  
NEW RICHMOND   FAIR      60  58  94 SE5       29.94S                  
OSCEOLA        FAIR      60  60 100 SE7       29.95F                  
$$
 
WIZ003>005-009-010-017-018-201100-
NORTH CENTRAL WISCONSIN
  
CITY           SKY/WX    TMP DP  RH WIND       PRES   REMARKS
MANITOWISH WTR FOG       50  50 100 CALM      29.99F VSB 3/4          
ARBOR VITAE    FAIR      54  51  90 CALM      30.01F                  
WOODRUFF       FAIR      54  51  90 CALM      30.01F                  
RHINELANDER    FAIR      52  50  93 CALM      30.01F FOG              
EAGLE RIVER    MOCLDY    48  48 100 CALM      30.02F FOG              
LAND O LAKES   FOG       48  47  99 CALM      30.02F VSB 1/2          
PHILLIPS       FAIR      51  51 100 CALM      29.98F                  
TOMAHAWK       FAIR      46  46  97 CALM      30.02F                  
MEDFORD        FAIR      49  49  99 E3        29.98F                  
MERRILL        FAIR      46  46 100 CALM      30.00F                  
$$
 
WIZ029-030-035-036-043>047-201100-
CENTRAL WISCONSIN
  
CITY           SKY/WX    TMP DP  RH WIND       PRES   REMARKS
WAUSAU         FAIR      51  50  96 E6        30.00F                  
MOSINEE        MOCLDY    50  50 100 E3        30.01F FOG              
MARSHFIELD     FAIR      55  53  93 E3        29.98F                  
STEVENS POINT  FAIR      47  47 100 CALM      29.99F                  
WAUPACA        FAIR      54  53  97 CALM      30.00F                  
WAUTOMA        FAIR      52  51  97 CALM      30.00F                  
WISC RAPIDS    FAIR      54  52  93 CALM      30.00F                  
CAMP DOUGLAS   FAIR      53  53 100 CALM      29.98F                  
$$
 
WIZ011>013-019>022-031-037>040-048>050-201100-
NORTHEAST WISCONSIN
  
CITY           SKY/WX    TMP DP  RH WIND       PRES   REMARKS
ANTIGO         FAIR      49  49 100 CALM      30.02F                  
SHAWANO        FAIR      56  55  96 CALM      30.01F FOG              
OCONTO         FAIR      51  49  95 CALM      30.01F                  
STURGEON BAY   FAIR      58  57  97 CALM      30.04F                  
GREEN BAY      FAIR      57  55  93 CALM      30.03F                  
MANITOWOC      FAIR      54  54 100 CALM      30.03F FOG              
APPLETON       FAIR      61  54  77 CALM      29.99F                  
CLINTONVILLE   FOG       51  49  92 CALM      30.01F VSB 3/4          
OSHKOSH        FAIR      60  55  83 CALM      30.01F                  
$$
 
WIZ032>034-041-042-053>061-201100-
SOUTHWEST WISCONSIN
  
CITY           SKY/WX    TMP DP  RH WIND       PRES   REMARKS
LA CROSSE      FAIR      61  57  87 CALM      29.94F                  
SPARTA         FAIR      48  48  99 CALM      29.96F                  
VIROQUA        FAIR      59  59 100 E8        29.94F                  
BOSCOBEL       CLOUDY    62  61  96 NE5       29.93F FOG              
PRAIRIE DU CHI FAIR      63  61  94 NW3       29.93F                  
PLATTEVILLE    FAIR      64  64 100 E13       29.93F                  
$$

WIZ056-057-062-063-064-067-068-201100-
SOUTH CENTRAL WISCONSIN
  
CITY           SKY/WX    TMP DP  RH WIND       PRES   REMARKS
REEDSBURG      MOCLDY    56  56 100 CALM      29.96F                  
BARABOO/DELLS  FAIR      56  55  95 CALM      29.97F                  
LONE ROCK      FOG       60  60 100 E8        29.93F VSB 1/2          
MINERAL POINT    N/A     64  63  94 N8        29.96F                  
MADISON        FAIR      59  57  93 CALM      29.99F                  
MIDDLETON      FAIR      58  25  27 CALM      30.00F                  
WATERTOWN      FAIR      61  61 100 E5        30.00F                  
MONROE         FAIR      65  63  91 E6        29.99F                  
JANESVILLE     FAIR      64  64 100 CALM      29.99F                  
$$
 
WIZ051-052-058>065-066-070>072-201100-
SOUTHEAST WISCONSIN
  
CITY           SKY/WX    TMP DP  RH WIND       PRES   REMARKS
MILWAUKEE      FOG       70  68  93 NE3       30.01F VSB 1/2          
WAUKESHA       MOCLDY    61  61 100 E3        30.03F                  
MILWAUKEE/TIMM FOG       66  63  88 CALM      30.01F VSB 1/2          
RACINE         FOG       70  68  93 N5        30.03F VSB 1/4          
KENOSHA        FOG       68  68 100 NE3       29.99F VSB 1/4          
FOND DU LAC    FAIR      59  56  89 CALM      30.02F                  
SHEBOYGAN      FAIR      56  54  93 CALM      30.03F                  
WEST BEND      FAIR      55  55 100 E3        30.02F FOG              
JUNEAU         FAIR      59  58  98 E5        30.00F                  
$$

LSZ147-162-201100-
LAKE SUPERIOR
  
STATION/POSITION TIME  TEMP    WIND        PRES    WAVE
                       AIR SEA DIR/SP/G            HT/PER
                 (UTC) (F)     (DEG/KT/KT) (MB)    (FT/S)
W MID LAKE BUOY  0950   65 63  230/ 10/ 10 1012.6F   2/ 5
DEVILS ISLAND    1000   68     190/  6/  6 1012.4F
SAXON HARBOR     0940   65     190/  9/ 13 1013.2F
$$
 
LMZ867-665-643>646-201100-
LAKE MICHIGAN
  
STATION/POSITION TIME  TEMP    WIND        PRES    WAVE
                       AIR SEA DIR/SP/G            HT/PER
                 (UTC) (F)     (DEG/KT/KT) (MB)    (FT/S)
S GREEN BAY BUOY 1000   72 70  190/  6/  6 1016.8
N MID LAKE BUOY  1000   69 69  220/  8/ 10 1016.8
NORTHPORT PIER   0940   62     190/  1/  3 1016.6S
KEWAUNEE LAKESHO 0948   59      CALM  /  1 1016.6F
SHEBOYGAN LAKESH 1000   66      CALM  /  1 1016.7F
PORT WASHINGTON  0940   65     290/  3/  3 1017.9F
S MID LAKE BUOY  1000   73 74   60/  8/ 10 1016.4
KENOSHA   LAKESH 1000   72      30/  6/  7 1015.9
$$

TC  - TEMPERATURE IN CELSIUS
VSB - VISIBILITY IN STATUTE MILES
WCI - WIND CHILL INDEX
HX  - HEAT INDEX